Location: Unspecified
(0.0000°N, 0.0000°E)
Time: 13:23:21
(UTC+01:00)

Milstar 3 - Visible Passes

Search period start: 27 January 2015 00:00
Search period end: 06 February 2015 00:00
Orbit: 1102 x 5144 km, 28.2° (Epoch: 16 January)

Date Brightness Start Highest point End Pass type
(mag) Time Alt. Az. Time Alt. Az. Time Alt. Az.
27 Jan 6.4 01:21:57 10° SW 01:39:29 32° SSE 02:06:42 10° ESE visible
27 Jan 6.3 04:10:40 10° SW 04:39:43 59° SSE 05:09:13 10° ENE visible
27 Jan 5.4 21:31:05 10° WSW 21:39:07 28° S 21:52:12 10° SE visible
28 Jan 6.3 00:18:58 10° SW 00:32:40 27° S 00:55:08 10° ESE visible
28 Jan 6.4 03:06:47 10° SW 03:31:47 49° SSE 04:02:43 10° E visible
28 Jan 6.0 05:57:26 10° WSW 06:30:42 90° SSE 06:55:40 10° ENE visible
28 Jan 4.9 20:28:50 10° W 20:35:54 33° SSW 20:47:07 10° SE visible
28 Jan 6.0 23:16:13 10° SW 23:26:49 24° S 23:44:06 10° SE visible
29 Jan 6.3 02:03:33 10° SW 02:24:08 39° SSE 02:54:08 10° E visible
29 Jan 6.1 04:52:13 10° SW 05:23:24 76° SSE 05:51:50 10° ENE visible
29 Jan 4.3 19:26:50 10° W 19:33:26 44° SSW 19:43:16 10° SE visible
29 Jan 5.8 22:13:34 10° SW 22:21:58 23° S 22:35:07 10° SE visible
30 Jan 6.3 01:00:47 10° SW 01:17:04 32° SSE 01:43:29 10° ESE visible
30 Jan 6.2 03:48:02 10° SW 04:15:46 63° SSE 04:46:43 10° ENE visible
30 Jan 6.0 06:40:15 10° WSW 07:13:34 71° NNW 07:36:37 10° NE visible
30 Jan 5.5 21:11:00 10° WSW 21:18:01 23° S 21:28:35 10° SE visible
30 Jan 6.2 23:58:19 10° SW 00:10:47 26° SSE 00:31:35 10° ESE visible
31 Jan 6.2 02:44:39 10° SW 03:08:14 51° SSE 03:39:54 10° E visible
31 Jan 6.0 05:34:10 10° WSW 06:06:38 86° NNW 06:33:29 10° ENE visible
31 Jan 5.1 20:08:33 10° WSW 20:14:53 27° SSW 20:24:02 10° SE visible
31 Jan 6.0 22:56:00 10° SW 23:05:22 22° S 23:20:20 10° SE visible
01 Feb 6.2 01:41:55 10° SW 02:01:09 41° SSE 02:31:03 10° E visible
01 Feb 6.0 04:29:23 10° SW 04:59:13 80° SSE 05:29:21 10° ENE visible
01 Feb 5.8 21:53:38 10° SW 22:00:48 19° S 22:11:23 10° SE visible
02 Feb 6.2 00:39:37 10° SW 00:54:43 32° SSE 01:20:09 10° ESE visible
02 Feb 6.0 03:25:37 10° SW 03:51:47 66° SSE 04:23:55 10° ENE visible
02 Feb 6.0 06:16:56 10° WSW 06:49:42 68° NNW 07:14:32 10° NE visible
02 Feb 5.5 20:51:05 10° SW 20:57:00 19° S 21:05:10 10° SE visible
02 Feb 6.1 23:37:39 10° SW 23:49:00 25° SSE 00:08:07 10° ESE visible
03 Feb 6.0 02:22:40 10° SW 02:44:42 53° SSE 03:16:48 10° ENE visible
03 Feb 6.0 05:11:12 10° WSW 05:42:26 82° NNW 06:11:04 10° NE visible
03 Feb 5.2 19:48:25 10° WSW 19:53:55 21° SSW 20:01:08 10° SSE visible
03 Feb 5.9 22:35:49 10° SSW 22:44:01 19° S 22:56:48 10° SE visible
04 Feb 6.0 01:20:20 10° SW 01:38:14 42° SSE 02:07:43 10° E visible
04 Feb 5.9 04:06:48 10° SW 04:35:00 84° SSE 05:06:35 10° ENE visible
04 Feb 5.8 21:33:51 10° SSW 21:39:42 16° S 21:47:51 10° SE visible
05 Feb 6.0 00:18:28 10° SW 00:39:05 29° SE 00:56:45 10° E visible
05 Feb 5.9 03:03:24 10° SW 03:27:50 70° SSE 04:00:49 10° ENE visible
05 Feb 6.0 05:53:55 10° WSW 06:25:44 64° NNW 06:52:16 10° NE visible
05 Feb 5.6 20:31:25 10° SW 20:36:02 15° S 20:41:51 10° SSE visible
05 Feb 6.0 23:16:57 10° SSW 23:27:17 24° SSE 23:30:49 23° SSE visible
